Weather past 2 weeks in Willemstad, Curaçao

Now
79 °F

Passing clouds.


Feels Like: 82 °F
Forecast: 78 / 85 °F
Wind: 17 mph from East

Location: Hato Airport - Curacao

Current Time: Mar 4, 2015 at 10:41:42 PM

Latest Report: Mar 4, 2015 at 10:00 PM


Visibility: N/A

Pressure: 29.95 "Hg

Humidity: 79%

Dew point: 72 °F

Location of WillemstadLocation

Historic Weather in Willemstad — Graph

°F

Willemstad temperature yesterday

Maximum temperature yesterday: 84 °F (at 11:00 AM)
Minimum temperature yesterday: 75 °F (at 2:00 PM)
Average temperature yesterday: 79 °F

Past Weeks' High & Low Weather Summary

 TemperatureHumidityPressure
High88 °F (Feb 19, 12:00 PM)94% (Mar 1, 10:00 PM)30.07 "Hg (Mar 1, 10:00 PM)
Low73 °F (Mar 1, 10:00 PM)49% (Feb 25, 3:00 PM)29.86 "Hg (Feb 19, 4:00 PM)
Average81 °F74%29.95 "Hg
* Reported Feb 17 9:00 PM — Mar 4 9:00 PM, Willemstad, Weather by CustomWeather, © 2015

Note: Actual official high and low records may vary slightly from our data, if they occured in-between our weather recording intervals... More about our weather records

Advertising

Willemstad weather history for previous 24 hours

 ConditionsComfort  
Time TempWeatherWind HumidityBarometerVisibility
9:00 PM
Wed, Mar 4
81 °FPassing clouds.17 mph74%29.95 "HgN/A
8:00 PM79 °FSprinkles. Passing clouds.18 mph84%29.92 "HgN/A
7:00 PM79 °FRain showers. Passing clouds.15 mph79%29.89 "Hg5 mi
6:00 PM82 °FScattered clouds.15 mph74%29.89 "HgN/A
5:00 PM82 °FPartly sunny.16 mph74%29.89 "HgN/A
4:00 PM81 °FScattered showers. Partly sunny.15 mph79%29.89 "HgN/A
3:00 PM84 °FPassing clouds.16 mph70%29.89 "HgN/A
2:00 PM84 °FScattered showers. Passing clouds.16 mph70%29.92 "HgN/A
1:00 PM84 °FPartly sunny.15 mph74%29.95 "HgN/A
12:00 PM81 °FSprinkles. Scattered clouds.15 mph79%29.98 "HgN/A
11:00 AM79 °FSprinkles. Scattered clouds.21 mph79%30.01 "HgN/A
10:00 AM84 °FSprinkles. Scattered clouds.16 mph70%29.98 "HgN/A
9:00 AM82 °FScattered showers. Scattered clouds.17 mph74%29.98 "HgN/A
8:00 AM79 °FPassing clouds.15 mph84%29.95 "HgN/A
7:00 AM77 °FPartly sunny.16 mph89%29.92 "HgN/A
6:00 AM75 °FSprinkles. Passing clouds.20 mph89%29.92 "HgN/A
5:00 AM75 °FMild.14 mph89%29.89 "Hg0 mi
4:00 AM77 °FPassing clouds.14 mph89%29.89 "HgN/A
3:00 AM75 °FSprinkles. Passing clouds.20 mph89%29.89 "HgN/A
2:00 AM77 °FSprinkles. Passing clouds.15 mph83%29.92 "HgN/A
1:00 AM77 °FScattered showers. Passing clouds.14 mph83%29.95 "HgN/A
12:00 AM79 °FPassing clouds.16 mph79%29.95 "HgN/A
11:00 PM
Tue, Mar 3
79 °FPassing clouds.14 mph79%29.95 "HgN/A
10:00 PM79 °FPassing clouds.17 mph79%29.95 "HgN/A
Weather by CustomWeather, © 2015

See weather overviewHow to use our weather pages